[[{"header":{"parameterUnit":"m.s-1","parameterCategory":1,"la1":30.2991,"la2":30.254,"lo1":-89.0895,"lo2":-89.0444,"dy":0.0017,"dx":0.0017,"nx":28,"ny":28,"refTime":"2024-05-03T09:00:00:Z","depth":0,"parameterNumber":2,"parameterNumberName":"U-component_of_WINDS"},"data":[0,0,0,0,0,0,0,0,0,0,0,0,0,0,0,0,0,0,0,0,0,0,0,0,0,0,0,0,0,0,0,0,0,0,0,0,0,0,0,0,0,0,0,0,0,0,0,0,0,0,0,0,0,0,0,0,0,0,-1.0994,-1.0994,0,-1.0975,-1.0975,-1.0975,-1.0947,-1.0946,-1.0946,-1.0945,-1.0928,-1.0928,-1.0928,0,0,0,0,0,0,0,0,0,0,0,0,0,-1.1008,-1.1008,-1.0994,-1.0994,-1.0994,-1.0975,-1.0975,-1.0975,-1.0947,-1.0946,-1.0946,-1.0945,-1.0928,-1.0928,-1.0928,0,0,0,0,0,0,0,0,0,0,0,0,0,-1.0997,-1.1008,-1.0994,-1.0978,-1.0976,-1.0976,-1.0975,-1.0975,-1.0947,-1.0946,-1.0945,-1.0945,-1.0928,-1.0928,-1.0928,-1.0943,0,0,-1.0928,-1.0928,0,0,0,0,0,0,0,0,-1.0997,-1.0996,-1.098,-1.0979,-1.0977,-1.0963,-1.0973,-1.0964,-1.0947,-1.0958,-1.0945,-1.0944,-1.094,-1.0939,-1.0937,-1.0942,-1.0941,-1.0928,-1.0927,-1.0927,-1.0927,0,0,0,0,0,0,0,-1.0998,-1.0997,-1.0987,-1.098,-1.0978,-1.0972,-1.0969,-1.0972,-1.0954,-1.0957,-1.0955,-1.0953,-1.0939,-1.0937,-1.0936,-1.0941,-1.0928,-1.0927,-1.0927,-1.0927,-1.0957,-1.0958,0,0,0,0,0,0,-1.1001,-1.0998,-1.0987,-1.0986,-1.0985,-1.0972,-1.0969,-1.0968,-1.0953,-1.095,-1.0954,-1.0952,-1.0937,-1.0936,-1.0936,-1.0952,-1.0927,-1.0927,-1.0927,-1.0957,-1.0958,-1.0958,0,0,0,0,0,0,-1.1002,-1.1001,-1.0988,-1.0991,-1.0989,-1.0972,-1.0971,-1.0968,-1.0966,-1.0951,-1.0948,-1.0955,-1.0937,-1.0936,-1.0941,-1.0952,-1.0927,-1.0927,-1.0956,-1.0957,-1.0958,-1.0986,0,0,0,0,0,0,-1.1002,-1.1001,-1.1006,-1.0992,-1.0989,-1.0994,-1.0972,-1.0968,-1.0966,-1.0963,-1.0951,-1.0949,-1.0936,-1.0941,-1.0941,-1.0951,-1.0927,-1.0955,-1.0956,-1.0958,-1.0984,-1.0988,-1.0992,0,0,0,0,0,-1.1003,-1.1015,-1.1006,-1.1005,-1.0995,-1.0994,-1.0993,-1.0978,-1.0967,-1.0972,-1.0963,-1.0949,-1.095,-1.0942,-1.0942,-1.0952,-1.0954,-1.0956,-1.0957,-1.0983,-1.0988,-1.0992,0,0,0,0,0,0,-1.1031,-1.1013,-1.1003,-1.1011,-1.1004,-1.0989,-1.0996,-1.0983,-1.098,-1.0978,-1.096,-1.0957,-1.0965,-1.0959,-1.095,-1.0966,-1.095,-1.0952,-1.0969,-1.0974,-1.0978,-1.0979,-1.0927,0,0,0,0,0,-1.1038,-1.1039,-1.1023,-1.1031,-1.1028,-1.1013,-1.1012,-1.1001,-1.0993,-1.099,-1.0981,-1.0975,-1.0974,-1.0973,-1.0972,-1.0983,-1.0981,-1.099,-1.0994,-1.0997,-1.0999,-1.1005,-1.1009,-1.0964,-1.0964,-1.0964,0,0,-1.1053,-1.1043,-1.1045,-1.1037,-1.103,-1.1031,-1.101,-1.1012,-1.1013,-1.0991,-1.0995,-1.0988,-1.098,-1.0989,-1.0992,-1.0984,-1.1011,-1.0999,-1.1002,-1.1002,-1.1007,-1.1011,-1.1015,-1.0965,-1.0965,-1.0965,0,0,-1.1081,-1.1073,-1.108,-1.1074,-1.1064,-1.1053,-1.1055,-1.1042,-1.1036,-1.104,-1.1024,-1.1025,-1.1023,-1.1018,-1.1016,-1.1042,-1.103,-1.1042,-1.1061,-1.1067,-1.1071,-1.1074,-1.1084,-1.1087,-1.1044,-1.1044,-1.1044,0,-1.1101,-1.1101,-1.1085,-1.1088,-1.1085,-1.1064,-1.1071,-1.1066,-1.1057,-1.1056,-1.1046,-1.1045,-1.1038,-1.1045,-1.1051,-1.105,-1.1052,-1.1043,-1.1072,-1.1075,-1.1077,-1.1086,-1.109,-1.1046,-1.1045,-1.1045,-1.1045,0,-1.1127,-1.1127,-1.1134,-1.1124,-1.1122,-1.1127,-1.1112,-1.1112,-1.1102,-1.1092,-1.1097,-1.1088,-1.1084,-1.1085,-1.1075,-1.1091,-1.1087,-1.1075,-1.1059,-1.1083,-1.1092,-1.1095,-1.1048,-1.1047,-1.1047,-1.1046,0,0,-1.1172,-1.1153,-1.1156,-1.1152,-1.114,-1.114,-1.1144,-1.114,-1.1141,-1.1135,-1.1139,-1.1138,-1.1127,-1.1124,-1.1113,-1.1119,-1.1141,-1.1106,-1.1106,-1.1113,-1.1159,-1.1168,-1.1172,-1.1132,-1.1133,-1.1133,-1.1159,0,-1.1197,-1.1203,-1.1188,-1.1198,-1.1198,-1.1179,-1.1183,-1.1176,-1.1168,-1.1167,-1.1158,-1.1158,-1.1144,-1.1142,-1.1146,-1.1137,-1.115,-1.1135,-1.1136,-1.1136,-1.1139,-1.1176,-1.1185,-1.121,-1.1162,-1.1163,-1.1163,0,-1.1228,-1.1223,-1.1233,-1.122,-1.122,-1.1223,-1.1219,-1.1218,-1.1211,-1.1204,-1.1201,-1.1188,-1.1192,-1.1177,-1.1182,-1.1173,-1.1172,-1.1168,-1.1169,-1.1168,-1.1151,-1.1177,-1.1218,-1.1222,-1.1168,-1.1168,-1.1167,0,-1.126,-1.1256,-1.1261,-1.1258,-1.1244,-1.1247,-1.1241,-1.1233,-1.1232,-1.1228,-1.1227,-1.1223,-1.1222,-1.122,-1.1207,-1.1197,-1.1214,-1.1197,-1.1209,-1.121,-1.1214,-1.1214,-1.1255,-1.1213,-1.1213,-1.1213,-1.1213,0,-1.129,-1.1297,-1.1276,-1.1279,-1.1286,-1.1269,-1.1277,-1.1269,-1.1262,-1.1264,-1.1247,-1.125,-1.1232,-1.1233,-1.1223,-1.1229,-1.1228,-1.1224,-1.1221,-1.1225,-1.1226,-1.1225,-1.1223,-1.1214,-1.1214,-1.1214,-1.1214,0,-1.1328,-1.1314,-1.1318,-1.1304,-1.1301,-1.1307,-1.1295,-1.1298,-1.1288,-1.1291,-1.1291,-1.1276,-1.1276,-1.1262,-1.126,-1.1253,-1.1264,-1.1258,-1.1266,-1.1264,-1.1277,-1.1276,-1.1319,-1.1324,-1.1279,-1.128,-1.128,0,-1.1348,-1.1352,-1.1339,-1.1338,-1.1333,-1.1333,-1.1332,-1.1316,-1.1315,-1.1307,-1.131,-1.1309,-1.1307,-1.1307,-1.1297,-1.1295,-1.1289,-1.1304,-1.1288,-1.1293,-1.1289,-1.1289,-1.129,-1.1308,-1.1308,-1.1309,-1.1309,0,-1.1385,-1.1378,-1.1376,-1.1372,-1.137,-1.1366,-1.1361,-1.1362,-1.1345,-1.1345,-1.1344,-1.1342,-1.1339,-1.1338,-1.1334,-1.1329,-1.1316,-1.1314,-1.1317,-1.1321,-1.1326,-1.1324,-1.1275,-1.1313,-1.1313,-1.1312,-1.1312,-1.1312,-1.1415,-1.1418,-1.1409,-1.1407,-1.1402,-1.1398,-1.1399,-1.139,-1.1389,-1.1385,-1.1376,-1.1377,-1.1369,-1.1363,-1.1358,-1.1359,-1.1352,-1.1355,-1.1356,-1.1358,-1.136,-1.1326,-1.1358,-1.1358,-1.1358,-1.1358,-1.1358,0,-1.1452,-1.1445,-1.1444,-1.1437,-1.1436,-1.1423,-1.1417,-1.1417,-1.1418,-1.1412,-1.141,-1.141,-1.1409,-1.1398,-1.1396,-1.1398,-1.1393,-1.1398,-1.1398,-1.1397,-1.1367,-1.1365,-1.1403,-1.1403,-1.1403,-1.1403,-1.1403,-1.1403,-1.1471,-1.1476,-1.1468,-1.147,-1.1463,-1.1464,-1.1461,-1.1457,-1.1452,-1.1452,-1.1451,-1.1444,-1.1436,-1.1433,-1.1432,-1.1429,-1.1429,-1.1436,-1.1432,-1.1404,-1.1399,-1.1395,-1.1393,-1.1437,-1.1437,-1.1462,-1.1462,-1.1462]},{"header":{"parameterUnit":"m.s-1","parameterCategory":1,"la1":30.2991,"la2":30.254,"lo1":-89.0895,"lo2":-89.0444,"dy":0.0017,"dx":0.0017,"nx":28,"ny":28,"refTime":"2024-05-03T09:00:00:Z","depth":0,"parameterNumber":3,"parameterNumberName":"V-component_of_WINDS"},"data":[0,0,0,0,0,0,0,0,0,0,0,0,0,0,0,0,0,0,0,0,0,0,0,0,0,0,0,0,0,0,0,0,0,0,0,0,0,0,0,0,0,0,0,0,0,0,0,0,0,0,0,0,0,0,0,0,0,0,2.7528,2.7528,0,2.7521,2.7521,2.7521,2.7483,2.7482,2.7481,2.748,2.7472,2.7473,2.7473,0,0,0,0,0,0,0,0,0,0,0,0,0,2.7511,2.7511,2.7528,2.7528,2.7528,2.7521,2.7521,2.7521,2.7483,2.7482,2.7481,2.748,2.7472,2.7473,2.7473,0,0,0,0,0,0,0,0,0,0,0,0,0,2.7512,2.7512,2.7528,2.7509,2.7507,2.7521,2.7521,2.7521,2.7483,2.7482,2.748,2.7479,2.7472,2.7473,2.7474,2.7506,0,0,2.7476,2.7477,0,0,0,0,0,0,0,0,2.7512,2.7513,2.7512,2.751,2.7508,2.7501,2.7511,2.7516,2.7484,2.7492,2.748,2.7479,2.7483,2.7483,2.7484,2.7506,2.7505,2.7476,2.7477,2.7477,2.7478,0,0,0,0,0,0,0,2.7512,2.7513,2.7525,2.7512,2.7509,2.75,2.7499,2.7512,2.7495,2.7491,2.7488,2.7488,2.7482,2.7484,2.7484,2.7505,2.7476,2.7477,2.7478,2.7478,2.7554,2.7555,0,0,0,0,0,0,2.7515,2.7513,2.7526,2.7525,2.7507,2.7502,2.75,2.7505,2.7495,2.7492,2.7489,2.7486,2.7483,2.7483,2.7483,2.7521,2.7477,2.7478,2.7479,2.7553,2.7554,2.7556,0,0,0,0,0,0,2.7515,2.7516,2.7526,2.7518,2.7519,2.7503,2.7509,2.7505,2.7507,2.7493,2.749,2.7494,2.7482,2.7482,2.7501,2.7521,2.7479,2.748,2.7551,2.7553,2.7555,2.7597,0,0,0,0,0,0,2.7514,2.7517,2.7528,2.7519,2.752,2.7543,2.751,2.7506,2.7509,2.7505,2.7497,2.7495,2.7481,2.75,2.7502,2.7521,2.748,2.7549,2.7552,2.7554,2.7594,2.7601,2.7606,0,0,0,0,0,2.7514,2.754,2.7529,2.7531,2.7534,2.7545,2.7545,2.7528,2.7511,2.7523,2.7514,2.7495,2.7518,2.7502,2.7504,2.7524,2.7548,2.7551,2.7554,2.7591,2.76,2.7606,0,0,0,0,0,0,2.7552,2.7539,2.7526,2.755,2.7549,2.7538,2.7553,2.7537,2.754,2.7537,2.7516,2.7514,2.7537,2.7532,2.7514,2.7555,2.753,2.7534,2.7557,2.7565,2.7571,2.7571,2.7481,0,0,0,0,0,2.7563,2.7573,2.7561,2.7583,2.7583,2.7569,2.7572,2.756,2.7557,2.7556,2.7549,2.7548,2.7555,2.756,2.7565,2.7594,2.7592,2.7608,2.7615,2.762,2.7623,2.7639,2.7646,2.7567,2.7567,2.7567,0,0,2.7587,2.7581,2.7588,2.7591,2.7588,2.7599,2.7568,2.758,2.7588,2.7558,2.7576,2.7571,2.7567,2.7591,2.7602,2.7588,2.7645,2.7624,2.7628,2.7629,2.7643,2.765,2.7657,2.7569,2.7569,2.7568,0,0,2.7635,2.7631,2.765,2.7648,2.7645,2.7635,2.764,2.7631,2.7627,2.7644,2.7622,2.7631,2.7644,2.7643,2.7644,2.7693,2.7676,2.7696,2.7727,2.7743,2.7749,2.7754,2.7772,2.7779,2.7699,2.7699,2.7699,0,2.7664,2.7679,2.7661,2.7675,2.7678,2.7652,2.7671,2.767,2.7669,2.7671,2.7657,2.7672,2.7668,2.7692,2.7704,2.7706,2.7711,2.7696,2.7749,2.7755,2.776,2.7776,2.7783,2.7702,2.7701,2.7701,2.7701,0,2.7716,2.7726,2.7742,2.7742,2.7746,2.7763,2.7748,2.7754,2.7742,2.7734,2.7752,2.7747,2.7751,2.7756,2.7744,2.7779,2.7771,2.7753,2.7727,2.777,2.7785,2.7792,2.7705,2.7704,2.7704,2.7703,0,0,2.7786,2.7777,2.7783,2.7783,2.7778,2.7787,2.7803,2.7807,2.7813,2.7814,2.7827,2.7838,2.7823,2.7824,2.7811,2.7825,2.7865,2.7806,2.7805,2.7817,2.7904,2.7917,2.7924,2.7854,2.7855,2.7856,2.7904,0,2.7832,2.7859,2.7844,2.7873,2.7883,2.7859,2.7873,2.7872,2.7865,2.7873,2.7865,2.7874,2.7852,2.7853,2.7865,2.7858,2.7882,2.7854,2.7866,2.7866,2.7867,2.7932,2.7946,2.7992,2.791,2.7911,2.7912,0,2.7889,2.7893,2.7923,2.7917,2.7921,2.7933,2.7937,2.7945,2.7943,2.7937,2.794,2.7924,2.794,2.7914,2.7936,2.7917,2.7921,2.7918,2.7919,2.792,2.7891,2.7935,2.8006,2.8013,2.7921,2.792,2.7919,0,2.7938,2.7951,2.797,2.7971,2.7964,2.7974,2.7972,2.7969,2.7973,2.7977,2.7979,2.7984,2.7987,2.7992,2.7978,2.7961,2.8002,2.7975,2.7997,2.7998,2.8006,2.8006,2.8079,2.8009,2.8009,2.8009,2.8009,0,2.7991,2.8011,2.7992,2.8004,2.8026,2.8009,2.803,2.8025,2.8023,2.8034,2.8014,2.8025,2.8006,2.8015,2.8005,2.8025,2.8026,2.8022,2.8019,2.8024,2.8024,2.8026,2.8022,2.8011,2.8011,2.801,2.801,0,2.805,2.8038,2.8058,2.8051,2.8049,2.8065,2.8059,2.807,2.8062,2.8077,2.8079,2.8067,2.8076,2.8064,2.8072,2.8065,2.8092,2.8084,2.8092,2.809,2.8113,2.8111,2.819,2.82,2.8124,2.8125,2.8125,0,2.8084,2.8098,2.8093,2.8099,2.8098,2.8108,2.8113,2.8097,2.8102,2.8102,2.8114,2.8122,2.8127,2.8144,2.8136,2.8142,2.8135,2.8162,2.8135,2.814,2.8135,2.8135,2.8136,2.8167,2.8168,2.8169,2.8169,0,2.8147,2.8141,2.8148,2.8154,2.816,2.8163,2.8165,2.8171,2.8155,2.8162,2.8172,2.8177,2.8185,2.8194,2.8198,2.8196,2.818,2.8178,2.8183,2.8188,2.8193,2.8191,2.8107,2.8176,2.8175,2.8175,2.8174,2.8174,2.8194,2.8206,2.8205,2.8214,2.8214,2.8216,2.8227,2.8221,2.8229,2.8235,2.8225,2.8238,2.8237,2.8241,2.8241,2.8251,2.8239,2.8247,2.8249,2.8251,2.8255,2.8191,2.8251,2.8251,2.8251,2.8251,2.8251,0,2.8256,2.8254,2.8263,2.8267,2.8274,2.8259,2.8261,2.8268,2.8279,2.828,2.8286,2.8298,2.8306,2.8299,2.8306,2.8315,2.8308,2.8318,2.8317,2.8317,2.8265,2.8259,2.8323,2.8323,2.8323,2.8323,2.8323,2.8323,2.8289,2.8309,2.8303,2.8323,2.8321,2.8333,2.8336,2.8338,2.8338,2.8353,2.836,2.8355,2.8353,2.836,2.8367,2.8364,2.8368,2.838,2.8375,2.8327,2.832,2.8313,2.8308,2.8381,2.8381,2.8426,2.8427,2.8427]}]]